User: anonymous   Login
Location: Unspecified
(0.0000°N, 0.0000°E)
Time: 09:23:34
(UTC+00:00)
Language:

Tiros N - Orbit

View from above orbital plane
View from above orbital plane
View from above satellite
View from above satellite

Ground track
Ground track

The orbit data is extracted from the following two-line orbital elements,

1 11060U 78096A   19049.80657933 -.00000000  00000-0  21283-4 0  9993
2 11060  98.8083 108.1827 0011038  37.2735 322.9204 14.18224265299673
Epoch (UTC): 18 February 2019 19:21:28
Eccentricity: 0.0011038
inclination: 98.8083°
perigee height: 823 km
apogee height: 839 km
right ascension of ascending node: 108.1827°
argument of perigee: 37.2735°
revolutions per day: 14.18224265
mean anomaly at epoch: 322.9204°
orbit number at epoch: 29967

The dashed part of the orbit path shows where the satellite is in the earth's shadow,  

DLR